FW8761 Weather Reports


time (UTC)temp
C
wind
direction
speed
KPH
gust
KPH
rain 1hr
cm
rain 24hr
cm
rain mn
cm
humidity
%
barometer
mb
20260507060027 17 240 1.6 9.7 0.00 0.00 0.00 80 1012.8
20260507054530 17 331 1.6 14.5 0.00 0.00 0.00 80 1012.8
20260507053028 17 84 0.0 12.9 0.00 0.00 0.00 80 1012.1
20260507051528 18 142 3.2 12.9 0.00 0.00 0.00 80 1012.0
20260507050029 18 26 3.2 19.3 0.00 0.00 0.00 79 1011.7
20260507044530 18 298 4.8 14.5 0.00 0.00 0.00 79 1012.3
20260507043035 18 13 4.8 16.1 0.00 0.00 0.00 79 1012.5
20260507041528 18 346 3.2 16.1 0.00 0.00 0.00 79 1012.1
20260507040028 18 337 3.2 16.1 0.00 0.00 0.00 80 1011.8
20260507034527 18 119 1.6 12.9 0.00 0.00 0.00 80 1011.4
20260507033028 18 149 3.2 16.1 0.00 0.00 0.00 80 1011.2
20260507031527 18 331 6.4 20.9 0.00 0.00 0.00 80 1011.2
20260507030031 18 310 6.4 20.9 0.00 0.00 0.00 79 1011.3
20260507024527 18 5 4.8 24.1 0.00 0.00 0.00 79 1011.2
20260507023029 18 336 8.0 27.4 0.00 0.00 0.00 78 1011.0
20260507021526 18 338 6.4 19.3 0.00 0.00 0.00 78 1010.9
20260507020025 18 15 8.0 16.1 0.00 0.00 0.00 78 1010.5
20260507014529 19 348 4.8 17.7 0.00 0.00 0.00 77 1009.8
20260507013035 19 316 8.0 25.7 0.00 0.00 0.00 77 1010.0
20260507011537 20 360 8.0 22.5 0.00 0.00 0.00 76 1009.9
20260507010030 20 53 6.4 19.3 0.00 0.00 0.00 75 1009.7
20260507004530 20 344 9.7 22.5 0.00 0.00 0.00 74 1009.2
20260507003025 21 342 8.0 19.3 0.00 0.00 0.00 73 1009.1
20260507001536 22 344 4.8 22.5 0.00 0.00 0.00 72 1009.3
20260507000030 22 10 8.0 22.5 0.00 0.00 0.00 70 1008.9
20260506234536 23 5 4.8 16.1 0.00 0.00 0.00 69 1008.7
20260506233027 24 163 3.2 16.1 0.00 0.00 0.00 68 1008.6
20260506231534 25 320 3.2 19.3 0.00 0.00 0.00 68 1008.3
20260506230031 25 16 6.4 22.5 0.00 0.00 0.00 68 1008.1
20260506224530 26 49 9.7 29.0 0.00 0.00 0.00 67 1007.9
20260506223029 26 349 6.4 24.1 0.00 0.00 0.00 67 1007.7
20260506221527 27 39 9.7 22.5 0.00 0.00 0.00 65 1007.4
20260506220028 28 55 4.8 19.3 0.00 0.00 0.00 67 1007.2
20260506214528 28 5 4.8 22.5 0.00 0.00 0.00 66 1007.3
20260506213029 30 71 8.0 22.5 0.00 0.00 0.00 62 1007.3
20260506211529 32 79 0.0 9.7 0.00 0.00 0.00 59 1007.0
20260506210030 32 0 1.6 9.7 0.00 0.00 0.00 58 1007.1
20260506204533 33 36 1.6 11.3 0.00 0.00 0.00 61 1007.2
20260506203034 32 0 1.6 11.3 0.00 0.00 0.00 61 1007.3
20260506201530 32 0 3.2 11.3 0.00 0.00 0.00 60 1007.7
20260506200031 32 73 0.0 6.4 0.00 0.00 0.00 61 1007.8
20260506194531 32 0 1.6 9.7 0.00 0.00 0.00 63 1007.8
20260506193028 31 175 1.6 11.3 0.00 0.00 0.00 63 1007.8
20260506191528 31 71 1.6 14.5 0.00 0.00 0.00 66 1007.9
20260506190035 30 0 1.6 8.0 0.00 0.00 0.00 69 1008.2
20260506184529 29 0 3.2 11.3 0.00 0.00 0.00 73 1008.2
20260506183030 28 51 0.0 9.7 0.00 0.00 0.00 76 1008.5
20260506181533 27 110 1.6 6.4 0.00 0.00 0.00 77 1008.8
20260506180030 27 77 1.6 9.7 0.00 0.00 0.00 78 1009.0
20260506174530 27 96 0.0 9.7 0.00 0.00 0.00 77 1009.0
20260506173037 27 0 1.6 9.7 0.00 0.00 0.00 77 1009.1
20260506171528 27 0 1.6 8.0 0.00 0.00 0.00 78 1009.0
20260506170030 27 346 0.0 6.4 0.00 0.00 0.00 78 1009.1
20260506164528 27 0 1.6 11.3 0.00 0.00 0.00 80 1009.1
20260506163045 26 44 1.6 9.7 0.00 0.00 0.00 82 1009.1
20260506161530 26 83 1.6 11.3 0.00 0.00 0.00 85 1009.1
20260506160029 25 178 1.6 6.4 0.00 0.00 0.00 86 1008.9
20260506154537 25 0 0.0 4.8 0.00 0.00 0.00 87 1008.7
20260506153031 25 83 0.0 4.8 0.00 0.00 0.00 87 1008.6
20260506151537 24 0 0.0 4.8 0.00 0.00 0.00 87 1008.4
20260506150029 24 5 0.0 6.4 0.00 0.00 0.00 88 1008.3
20260506144529 24 0 0.0 4.8 0.00 0.00 0.00 88 1008.3
20260506143028 24 146 0.0 6.4 0.00 0.00 0.00 88 1008.0
20260506141532 24 223 1.6 6.4 0.00 0.00 0.00 88 1007.7
20260506140033 24 146 1.6 8.0 0.00 0.00 0.00 88 1007.4
20260506134528 23 199 1.6 9.7 0.00 0.00 0.00 88 1007.0
20260506133029 23 142 3.2 11.3 0.00 0.00 0.00 89 1006.9
20260506131534 23 152 3.2 14.5 0.00 0.00 0.00 89 1006.7
20260506130030 23 194 4.8 14.5 0.00 0.00 0.00 89 1006.6
20260506124530 23 161 3.2 12.9 0.00 0.00 0.00 89 1006.5
20260506123030 23 188 1.6 14.5 0.00 0.00 0.00 89 1006.7
20260506121527 23 166 3.2 9.7 0.00 0.00 0.00 89 1006.6
20260506120026 23 194 1.6 14.5 0.00 0.00 0.00 89 1006.5
20260506114526 23 205 1.6 6.4 0.00 0.00 0.00 89 1006.5
20260506113028 23 0 0.0 6.4 0.00 0.00 0.00 89 1006.5
20260506111530 23 200 4.8 12.9 0.00 0.00 0.00 88 1006.5
20260506110028 23 190 1.6 9.7 0.00 0.00 0.00 88 1006.5
20260506104525 23 188 1.6 12.9 0.00 0.00 0.00 88 1006.2
20260506103029 23 204 4.8 12.9 0.00 0.00 0.00 88 1006.3
20260506101530 23 209 3.2 11.3 0.00 0.00 0.00 88 1006.3
20260506100031 24 180 4.8 12.9 0.00 0.00 0.00 87 1006.1
20260506094530 24 148 3.2 14.5 0.00 0.00 0.00 87 1006.1
20260506093026 24 158 6.4 12.9 0.00 0.00 0.00 87 1006.1
20260506091527 24 165 6.4 16.1 0.00 0.00 0.00 87 1006.0
20260506090030 24 179 4.8 16.1 0.00 0.00 0.00 87 1005.9
20260506084536 24 221 4.8 16.1 0.00 0.00 0.00 87 1006.1
20260506083031 24 192 8.0 17.7 0.00 0.00 0.00 87 1006.2
20260506081528 24 184 6.4 16.1 0.00 0.00 0.00 87 1006.3
20260506073030 24 195 3.2 11.3 0.00 0.00 0.00 87 1006.6
20260506071528 24 192 8.0 20.9 0.00 0.00 0.00 87 1006.8
20260506061531 24 178 8.0 17.7 0.00 0.00 0.00 87 1006.7